| time (UTC) | temp F | wind direction | speed MPH | gust MPH | rain 1hr in | rain 24hr in | rain mn in | humidity % | barometer mb |
| 20260505220543 | 78 | 26 | 4.0 | 13.0 | 0.00 | 0.02 | 0.02 | 42 | 1006.1 |
| 20260505215040 | 78 | 116 | 5.0 | 11.0 | 0.00 | 0.02 | 0.02 | 41 | 1006.2 |
| 20260505213539 | 79 | 243 | 4.0 | 11.0 | 0.00 | 0.02 | 0.02 | 41 | 1006.1 |
| 20260505212042 | 79 | 232 | 7.0 | 12.0 | 0.00 | 0.02 | 0.02 | 40 | 1006.0 |
| 20260505210541 | 80 | 297 | 3.0 | 16.0 | 0.00 | 0.02 | 0.02 | 40 | 1006.1 |
| 20260505205053 | 80 | 141 | 5.0 | 15.0 | 0.00 | 0.02 | 0.02 | 41 | 1005.9 |
| 20260505203554 | 81 | 112 | 3.0 | 13.0 | 0.00 | 0.02 | 0.02 | 40 | 1005.8 |
| 20260505202032 | 81 | 115 | 3.0 | 11.0 | 0.00 | 0.02 | 0.02 | 39 | 1005.8 |
| 20260505200558 | 82 | 278 | 2.0 | 11.0 | 0.00 | 0.02 | 0.02 | 35 | 1005.9 |
| 20260505195115 | 82 | 254 | 6.0 | 11.0 | 0.00 | 0.02 | 0.02 | 33 | 1006.1 |
| 20260505193553 | 82 | 339 | 3.0 | 14.0 | 0.00 | 0.02 | 0.02 | 34 | 1006.1 |
| 20260505192034 | 82 | 218 | 7.0 | 14.0 | 0.00 | 0.02 | 0.02 | 34 | 1006.4 |
| 20260505190538 | 81 | 259 | 4.0 | 17.0 | 0.00 | 0.02 | 0.02 | 34 | 1006.5 |
| 20260505185030 | 82 | 340 | 5.0 | 16.0 | 0.00 | 0.02 | 0.02 | 35 | 1006.6 |
| 20260505183554 | 81 | 292 | 5.0 | 13.0 | 0.00 | 0.02 | 0.02 | 32 | 1007.0 |
| 20260505182052 | 81 | 270 | 5.0 | 18.0 | 0.00 | 0.02 | 0.02 | 37 | 1006.9 |
| 20260505180556 | 81 | 346 | 3.0 | 18.0 | 0.00 | 0.02 | 0.02 | 38 | 1007.3 |
| 20260505175036 | 81 | 295 | 5.0 | 10.0 | 0.00 | 0.02 | 0.02 | 44 | 1007.6 |
| 20260505173534 | 81 | 136 | 4.0 | 11.0 | 0.00 | 0.02 | 0.02 | 44 | 1007.6 |
| 20260505172035 | 81 | 217 | 3.0 | 11.0 | 0.00 | 0.02 | 0.02 | 46 | 1007.7 |
| 20260505170537 | 80 | 285 | 2.0 | 11.0 | 0.00 | 0.02 | 0.02 | 46 | 1007.8 |
| 20260505165113 | 79 | 76 | 4.0 | 10.0 | 0.00 | 0.02 | 0.02 | 48 | 1008.1 |
| 20260505163549 | 79 | 258 | 8.0 | 13.0 | 0.00 | 0.02 | 0.02 | 48 | 1008.1 |
| 20260505162046 | 78 | 254 | 3.0 | 10.0 | 0.00 | 0.02 | 0.02 | 47 | 1008.3 |
| 20260505160541 | 77 | 253 | 6.0 | 13.0 | 0.00 | 0.02 | 0.02 | 51 | 1008.5 |
| 20260505152042 | 76 | 259 | 2.0 | 11.0 | 0.00 | 0.02 | 0.02 | 52 | 1008.8 |
| 20260505150535 | 76 | 236 | 2.0 | 8.0 | 0.00 | 0.02 | 0.02 | 55 | 1009.0 |
| 20260505140550 | 72 | 330 | 2.0 | 7.0 | 0.00 | 0.02 | 0.02 | 63 | 1009.7 |
| 20260505123543 | 59 | 315 | 3.0 | 5.0 | 0.00 | 0.02 | 0.02 | 90 | 1009.6 |
| 20260505122043 | 58 | 262 | 1.0 | 3.0 | 0.00 | 0.02 | 0.02 | 94 | 1009.6 |
| 20260505120544 | 57 | 207 | 1.0 | 4.0 | 0.00 | 0.02 | 0.02 | 95 | 1009.7 |
| 20260505115037 | 56 | 341 | 0.0 | 3.0 | 0.00 | 0.02 | 0.02 | 95 | 1009.4 |
| 20260505113535 | 54 | 182 | 0.0 | 0.0 | 0.00 | 0.02 | 0.02 | 95 | 1009.2 |
| 20260505112100 | 53 | 181 | 0.0 | 0.0 | 0.00 | 0.02 | 0.02 | 94 | 1009.3 |
| 20260505110610 | 53 | 181 | 0.0 | 0.0 | 0.00 | 0.02 | 0.02 | 93 | 1009.2 |
| 20260505102033 | 54 | 238 | 0.0 | 1.0 | 0.00 | 0.02 | 0.02 | 91 | 1009.2 |
| 20260505100536 | 54 | 238 | 0.0 | 3.0 | 0.01 | 0.02 | 0.02 | 90 | 1008.7 |
| 20260505095052 | 55 | 223 | 0.0 | 0.0 | 0.02 | 0.02 | 0.02 | 91 | 1008.4 |
| 20260505093554 | 55 | 213 | 0.0 | 3.0 | 0.02 | 0.02 | 0.02 | 90 | 1008.5 |
| 20260505092052 | 54 | 337 | 0.0 | 2.0 | 0.02 | 0.02 | 0.02 | 88 | 1009.0 |
| 20260505090559 | 54 | 243 | 0.0 | 3.0 | 0.01 | 0.01 | 0.01 | 86 | 1009.8 |
| 20260505085027 | 53 | 215 | 0.0 | 1.0 | 0.00 | 0.00 | 0.00 | 81 | 1009.6 |
| 20260505083551 | 53 | 215 | 0.0 | 0.0 | 0.00 | 0.00 | 0.00 | 78 | 1009.0 |
| 20260505082051 | 54 | 215 | 0.0 | 0.0 | 0.00 | 0.00 | 0.00 | 77 | 1008.8 |
| 20260505080551 | 54 | 215 | 0.0 | 0.0 | 0.00 | 0.00 | 0.00 | 77 | 1008.5 |
| 20260505075039 | 54 | 215 | 0.0 | 0.0 | 0.00 | 0.00 | 0.00 | 76 | 1008.4 |
| 20260505073535 | 55 | 215 | 0.0 | 1.0 | 0.00 | 0.00 | 0.00 | 75 | 1008.5 |
| 20260505072100 | 55 | 215 | 0.0 | 0.0 | 0.00 | 0.00 | 0.00 | 75 | 1008.6 |
| 20260505070539 | 55 | 215 | 0.0 | 1.0 | 0.00 | 0.00 | 0.00 | 73 | 1008.6 |
| 20260505065036 | 55 | 215 | 0.0 | 0.0 | 0.00 | 0.00 | 0.00 | 73 | 1008.5 |
| 20260505063535 | 55 | 215 | 0.0 | 0.0 | 0.00 | 0.00 | 0.00 | 71 | 1008.7 |
| 20260505062032 | 56 | 215 | 0.0 | 0.0 | 0.00 | 0.00 | 0.00 | 71 | 1008.7 |
| 20260505060529 | 57 | 215 | 0.0 | 1.0 | 0.00 | 0.00 | 0.00 | 69 | 1008.8 |
| 20260505055043 | 57 | 215 | 0.0 | 1.0 | 0.00 | 0.00 | 0.00 | 68 | 1008.7 |
| 20260505053557 | 57 | 215 | 0.0 | 1.0 | 0.00 | 0.00 | 0.00 | 66 | 1008.8 |
| 20260505052034 | 56 | 235 | 0.0 | 3.0 | 0.00 | 0.00 | 0.00 | 67 | 1008.7 |
| 20260505050542 | 56 | 155 | 0.0 | 1.0 | 0.00 | 0.00 | 0.00 | 67 | 1008.7 |
| 20260505040537 | 55 | 233 | 0.0 | 3.0 | 0.00 | 0.00 | 0.00 | 68 | 1008.3 |
| 20260505035026 | 56 | 183 | 0.0 | 2.0 | 0.00 | 0.00 | 0.00 | 68 | 1008.3 |
| 20260505033545 | 57 | 183 | 0.0 | 0.0 | 0.00 | 0.00 | 0.00 | 66 | 1008.4 |
| 20260505032041 | 57 | 183 | 0.0 | 1.0 | 0.00 | 0.00 | 0.00 | 65 | 1008.6 |
| 20260505030539 | 58 | 183 | 0.0 | 1.0 | 0.00 | 0.00 | 0.00 | 62 | 1008.5 |
| 20260505025035 | 58 | 196 | 0.0 | 1.0 | 0.00 | 0.00 | 0.00 | 61 | 1008.6 |
| 20260505023537 | 59 | 220 | 0.0 | 2.0 | 0.00 | 0.00 | 0.00 | 61 | 1008.5 |
| 20260505022037 | 59 | 247 | 0.0 | 0.0 | 0.00 | 0.00 | 0.00 | 60 | 1008.7 |
| 20260505020537 | 59 | 249 | 0.0 | 2.0 | 0.00 | 0.00 | 0.00 | 59 | 1008.7 |
| 20260505015035 | 60 | 232 | 1.0 | 4.0 | 0.00 | 0.00 | 0.00 | 58 | 1008.6 |
| 20260505013532 | 61 | 193 | 0.0 | 2.0 | 0.00 | 0.00 | 0.00 | 56 | 1008.6 |
| 20260505012039 | 61 | 239 | 0.0 | 2.0 | 0.00 | 0.00 | 0.00 | 56 | 1008.5 |
| 20260505010542 | 62 | 248 | 1.0 | 6.0 | 0.00 | 0.00 | 0.00 | 54 | 1008.5 |
| 20260505005027 | 62 | 280 | 0.0 | 4.0 | 0.00 | 0.00 | 0.00 | 54 | 1008.2 |
| 20260505003538 | 63 | 267 | 1.0 | 5.0 | 0.00 | 0.00 | 0.00 | 53 | 1008.0 |
| 20260505002029 | 65 | 43 | 2.0 | 6.0 | 0.00 | 0.00 | 0.00 | 51 | 1008.0 |
| 20260505000539 | 66 | 250 | 2.0 | 5.0 | 0.00 | 0.00 | 0.00 | 49 | 1007.9 |
| 20260504235040 | 66 | 263 | 3.0 | 6.0 | 0.00 | 0.00 | 0.00 | 48 | 1007.8 |
| 20260504233539 | 67 | 235 | 4.0 | 9.0 | 0.00 | 0.00 | 0.00 | 47 | 1007.6 |
| 20260504232028 | 68 | 252 | 1.0 | 5.0 | 0.00 | 0.00 | 0.00 | 46 | 1007.4 |
| 20260504230549 | 69 | 241 | 3.0 | 8.0 | 0.00 | 0.00 | 0.00 | 46 | 1007.2 |
| 20260504225044 | 70 | 245 | 1.0 | 10.0 | 0.00 | 0.00 | 0.00 | 42 | 1007.2 |
| 20260504223543 | 70 | 26 | 2.0 | 5.0 | 0.00 | 0.00 | 0.00 | 42 | 1007.2 |
| 20260504222038 | 71 | 39 | 4.0 | 14.0 | 0.00 | 0.00 | 0.00 | 41 | 1007.2 |